[[{"header":{"parameterUnit":"m.s-1","parameterCategory":1,"la1":30.2991,"la2":30.254,"lo1":-89.0895,"lo2":-89.0444,"dy":0.0017,"dx":0.0017,"nx":28,"ny":28,"refTime":"2024-04-27T09:00:00:Z","depth":0,"parameterNumber":2,"parameterNumberName":"U-component_of_WINDS"},"data":[0,0,0,0,0,0,0,0,0,0,0,0,0,0,0,0,0,0,0,0,0,0,0,0,0,0,0,0,0,0,0,0,0,0,0,0,0,0,0,0,0,0,0,0,0,0,0,0,0,0,0,0,0,0,0,0,0,0,-6.3844,-6.3845,0,-6.3918,-6.3919,-6.392,-6.3846,-6.3843,-6.384,-6.3838,-6.3911,-6.3916,-6.392,0,0,0,0,0,0,0,0,0,0,0,0,0,-6.3635,-6.3639,-6.3844,-6.3845,-6.3846,-6.3918,-6.3919,-6.392,-6.3847,-6.3843,-6.384,-6.3836,-6.391,-6.3915,-6.3921,0,0,0,0,0,0,0,0,0,0,0,0,0,-6.3719,-6.364,-6.3844,-6.3818,-6.3816,-6.3918,-6.3919,-6.3921,-6.3848,-6.3843,-6.3839,-6.3835,-6.3908,-6.3915,-6.3922,-6.4052,0,0,-6.3943,-6.3946,0,0,0,0,0,0,0,0,-6.3714,-6.3727,-6.3821,-6.382,-6.3818,-6.3869,-6.3872,-6.3965,-6.3849,-6.3836,-6.3838,-6.3833,-6.39,-6.3908,-6.3931,-6.4055,-6.4058,-6.3944,-6.3948,-6.3951,-6.3953,0,0,0,0,0,0,0,-6.3709,-6.3723,-6.3873,-6.3822,-6.3821,-6.3802,-6.3809,-6.389,-6.3891,-6.3836,-6.3831,-6.3841,-6.3899,-6.3925,-6.3932,-6.406,-6.3943,-6.395,-6.3954,-6.3957,-6.4292,-6.4297,0,0,0,0,0,0,-6.3706,-6.3719,-6.3871,-6.3875,-6.3755,-6.3809,-6.3817,-6.3857,-6.389,-6.3891,-6.3845,-6.3837,-6.3915,-6.3924,-6.3935,-6.4087,-6.3951,-6.3957,-6.3961,-6.4288,-6.4293,-6.4299,0,0,0,0,0,0,-6.3702,-6.372,-6.3868,-6.3796,-6.3813,-6.3817,-6.3863,-6.3861,-6.3886,-6.3897,-6.3896,-6.3871,-6.3912,-6.3925,-6.4023,-6.4089,-6.396,-6.3967,-6.4282,-6.4289,-6.4296,-6.4394,0,0,0,0,0,0,-6.3696,-6.3719,-6.3769,-6.3797,-6.3817,-6.3956,-6.3867,-6.3865,-6.3899,-6.389,-6.3921,-6.3922,-6.3909,-6.4013,-6.403,-6.4096,-6.3972,-6.4276,-6.4285,-6.4294,-6.4385,-6.4404,-6.442,0,0,0,0,0,-6.3689,-6.3794,-6.3772,-6.3791,-6.388,-6.396,-6.3971,-6.3955,-6.3905,-6.3954,-6.3961,-6.3921,-6.408,-6.4024,-6.4042,-6.4111,-6.4272,-6.4283,-6.4293,-6.4377,-6.44,-6.442,0,0,0,0,0,0,-6.3772,-6.3797,-6.3773,-6.389,-6.3924,-6.3947,-6.4009,-6.398,-6.4027,-6.4017,-6.3994,-6.4002,-6.4106,-6.4119,-6.4056,-6.4238,-6.4167,-6.4182,-6.4225,-6.4247,-6.4264,-6.4257,-6.3978,0,0,0,0,0,-6.3804,-6.3868,-6.3886,-6.3988,-6.4006,-6.4005,-6.4039,-6.4024,-6.4057,-6.407,-6.4084,-6.4117,-6.4174,-6.4212,-6.4265,-6.4388,-6.4393,-6.4445,-6.4463,-6.4477,-6.4488,-6.4552,-6.4575,-6.4333,-6.4333,-6.4333,0,0,-6.387,-6.3892,-6.3933,-6.4005,-6.4029,-6.4093,-6.4017,-6.4089,-6.4137,-6.4081,-6.4174,-6.4186,-6.4221,-6.4332,-6.4381,-6.4346,-6.4557,-6.449,-6.4502,-6.4505,-6.4566,-6.4588,-6.4609,-6.4341,-6.4339,-6.4338,0,0,-6.4024,-6.4048,-6.4134,-6.416,-6.4198,-6.4197,-6.4218,-6.4247,-6.4252,-6.4346,-6.4305,-6.4361,-6.4461,-6.4487,-6.4513,-6.4678,-6.4642,-6.4697,-6.4786,-6.4848,-6.4867,-6.4884,-6.494,-6.4961,-6.4709,-6.471,-6.471,0,-6.4101,-6.4198,-6.4182,-6.4257,-6.4289,-6.4244,-6.433,-6.4356,-6.4409,-6.4431,-6.4392,-6.4515,-6.4535,-6.465,-6.4691,-6.4715,-6.4736,-6.4691,-6.4866,-6.4883,-6.4898,-6.4951,-6.4972,-6.4715,-6.4715,-6.4714,-6.4714,0,-6.4289,-6.4358,-6.4423,-6.4476,-6.4515,-6.4596,-6.4591,-6.4633,-6.4616,-6.4619,-6.4714,-6.4738,-6.4794,-6.4821,-6.4805,-6.4934,-6.4911,-6.487,-6.4797,-6.4927,-6.4976,-6.4997,-6.4724,-6.4722,-6.472,-6.4719,0,0,-6.4494,-6.4538,-6.4562,-6.4584,-6.4624,-6.4675,-6.4754,-6.481,-6.4845,-6.4885,-6.4948,-6.5034,-6.4996,-6.5026,-6.5012,-6.5068,-6.5194,-6.5019,-6.502,-6.5048,-6.5335,-6.5363,-6.5387,-6.5172,-6.5176,-6.5179,-6.5331,0,-6.4645,-6.4782,-6.477,-6.4898,-6.496,-6.4919,-6.4987,-6.5018,-6.5023,-6.5076,-6.5082,-6.5142,-6.5089,-6.5106,-6.516,-6.5167,-6.525,-6.5157,-6.5228,-6.5231,-6.5217,-6.5413,-6.5443,-6.5584,-6.535,-6.5353,-6.5356,0,-6.484,-6.4886,-6.5021,-6.505,-6.5075,-6.5137,-6.5186,-6.5238,-6.5272,-6.5272,-6.5307,-6.5284,-6.5362,-6.5291,-6.5397,-6.5333,-6.5362,-6.5371,-6.5376,-6.5378,-6.5298,-6.5417,-6.5629,-6.5649,-6.5387,-6.5384,-6.5382,0,-6.4971,-6.5067,-6.516,-6.5181,-6.5218,-6.5262,-6.5279,-6.5309,-6.5344,-6.5388,-6.541,-6.5463,-6.5491,-6.5532,-6.5523,-6.5473,-6.563,-6.5559,-6.563,-6.563,-6.5661,-6.5659,-6.5877,-6.5688,-6.5687,-6.5687,-6.5686,0,-6.514,-6.5223,-6.5219,-6.5275,-6.5367,-6.5353,-6.5444,-6.5456,-6.5484,-6.5541,-6.551,-6.5564,-6.5551,-6.5605,-6.56,-6.5686,-6.57,-6.5701,-6.5698,-6.5701,-6.5701,-6.5717,-6.5706,-6.5692,-6.5691,-6.569,-6.5689,0,-6.53,-6.5301,-6.5398,-6.5426,-6.5435,-6.5501,-6.5524,-6.5577,-6.5582,-6.5654,-6.567,-6.5677,-6.5738,-6.5735,-6.5805,-6.5801,-6.5907,-6.5894,-6.5895,-6.5891,-6.5961,-6.5953,-6.6194,-6.6224,-6.6018,-6.602,-6.6022,0,-6.5405,-6.5468,-6.5503,-6.5539,-6.556,-6.5619,-6.5654,-6.5644,-6.5682,-6.5726,-6.5773,-6.5832,-6.5878,-6.5978,-6.5988,-6.6041,-6.6027,-6.6108,-6.6034,-6.6036,-6.6024,-6.6019,-6.6024,-6.6121,-6.6123,-6.6125,-6.6127,0,-6.5591,-6.5589,-6.5641,-6.5694,-6.5737,-6.5777,-6.5815,-6.5846,-6.584,-6.5884,-6.5947,-6.5983,-6.6054,-6.6112,-6.6164,-6.618,-6.6152,-6.6151,-6.6169,-6.6172,-6.6168,-6.6168,-6.593,-6.6144,-6.6142,-6.6141,-6.614,-6.6139,-6.5725,-6.5778,-6.5811,-6.5869,-6.5897,-6.5933,-6.5983,-6.5994,-6.6047,-6.6104,-6.6096,-6.6165,-6.6198,-6.6263,-6.6285,-6.6339,-6.631,-6.6338,-6.6344,-6.635,-6.6356,-6.6163,-6.6349,-6.6348,-6.6348,-6.6347,-6.6347,0,-6.5906,-6.5925,-6.598,-6.6033,-6.6079,-6.6052,-6.6091,-6.6131,-6.6193,-6.6227,-6.6273,-6.6345,-6.6402,-6.6417,-6.6471,-6.6511,-6.6499,-6.6525,-6.652,-6.6524,-6.6381,-6.6358,-6.6534,-6.6534,-6.6534,-6.6534,-6.6534,-6.6534,-6.6005,-6.6093,-6.6095,-6.6196,-6.6215,-6.6283,-6.6308,-6.6341,-6.6367,-6.6448,-6.6496,-6.6506,-6.6531,-6.6587,-6.6638,-6.6641,-6.666,-6.6691,-6.6689,-6.6553,-6.6534,-6.6516,-6.6494,-6.6696,-6.6697,-6.6827,-6.6828,-6.6829]},{"header":{"parameterUnit":"m.s-1","parameterCategory":1,"la1":30.2991,"la2":30.254,"lo1":-89.0895,"lo2":-89.0444,"dy":0.0017,"dx":0.0017,"nx":28,"ny":28,"refTime":"2024-04-27T09:00:00:Z","depth":0,"parameterNumber":3,"parameterNumberName":"V-component_of_WINDS"},"data":[0,0,0,0,0,0,0,0,0,0,0,0,0,0,0,0,0,0,0,0,0,0,0,0,0,0,0,0,0,0,0,0,0,0,0,0,0,0,0,0,0,0,0,0,0,0,0,0,0,0,0,0,0,0,0,0,0,0,4.6686,4.6686,0,4.6711,4.6711,4.6712,4.6643,4.6641,4.6639,4.6637,4.6658,4.6661,4.6663,0,0,0,0,0,0,0,0,0,0,0,0,0,4.6575,4.6578,4.6686,4.6686,4.6687,4.6711,4.6711,4.6712,4.6643,4.6641,4.6638,4.6636,4.6657,4.666,4.6663,0,0,0,0,0,0,0,0,0,0,0,0,0,4.6614,4.6579,4.6686,4.6656,4.6653,4.6711,4.6711,4.6712,4.6644,4.6641,4.6637,4.6634,4.6656,4.666,4.6664,4.6751,0,0,4.6676,4.6677,0,0,0,0,0,0,0,0,4.6612,4.6618,4.666,4.6658,4.6655,4.6671,4.668,4.6725,4.6645,4.6647,4.6637,4.6633,4.6665,4.6668,4.6679,4.6752,4.6753,4.6676,4.6678,4.668,4.6681,0,0,0,0,0,0,0,4.661,4.6617,4.6696,4.666,4.6658,4.6639,4.6642,4.6688,4.6673,4.6647,4.6642,4.6646,4.6663,4.6676,4.6679,4.6753,4.6676,4.6679,4.6682,4.6683,4.6899,4.6902,0,0,0,0,0,0,4.6611,4.6615,4.6695,4.6697,4.6625,4.6644,4.6646,4.6669,4.6673,4.667,4.6649,4.6643,4.6671,4.6675,4.668,4.6782,4.668,4.6683,4.6686,4.6896,4.69,4.6904,0,0,0,0,0,0,4.6609,4.6619,4.6694,4.6655,4.6663,4.6649,4.6675,4.6671,4.6684,4.6674,4.6671,4.6665,4.6668,4.6674,4.6734,4.6781,4.6685,4.6689,4.6892,4.6897,4.6902,4.6987,0,0,0,0,0,0,4.6606,4.6619,4.6652,4.6656,4.6665,4.6749,4.6678,4.6674,4.6691,4.6683,4.6688,4.6686,4.6666,4.6729,4.6738,4.6785,4.6692,4.6887,4.6894,4.69,4.6979,4.6994,4.7006,0,0,0,0,0,4.6603,4.6674,4.6654,4.6664,4.6707,4.6752,4.6757,4.6734,4.6695,4.6728,4.6722,4.6686,4.6775,4.6736,4.6745,4.6794,4.6884,4.6892,4.69,4.6973,4.6991,4.7006,0,0,0,0,0,0,4.6674,4.6674,4.6652,4.6727,4.6741,4.674,4.6781,4.6754,4.6777,4.6769,4.6738,4.674,4.6805,4.6806,4.6761,4.6879,4.6823,4.6833,4.6876,4.6892,4.6906,4.6903,4.6695,0,0,0,0,0,4.67,4.6738,4.6735,4.6801,4.6809,4.6795,4.6813,4.6795,4.6806,4.6811,4.6809,4.6821,4.6852,4.6872,4.69,4.698,4.698,4.7018,4.7032,4.7043,4.7052,4.7093,4.711,4.6929,4.6929,4.6929,0,0,4.6751,4.6755,4.6781,4.6816,4.6824,4.6862,4.6799,4.6843,4.6871,4.6817,4.6874,4.6873,4.6884,4.6955,4.6986,4.6957,4.7102,4.7053,4.7062,4.7064,4.7103,4.712,4.7136,4.6934,4.6933,4.6933,0,0,4.6864,4.6872,4.6928,4.6938,4.6952,4.6942,4.6956,4.696,4.6958,4.7015,4.6976,4.7008,4.7062,4.7072,4.7083,4.7203,4.7169,4.7212,4.7282,4.7323,4.7338,4.735,4.7392,4.7407,4.7221,4.7222,4.7222,0,4.6925,4.6983,4.696,4.7007,4.7023,4.6979,4.7035,4.7045,4.7067,4.7078,4.7047,4.7114,4.7118,4.719,4.7219,4.7231,4.7245,4.7211,4.7338,4.735,4.7361,4.74,4.7416,4.7226,4.7226,4.7225,4.7225,0,4.7057,4.7098,4.7142,4.7166,4.7187,4.7239,4.7222,4.7247,4.7227,4.722,4.7279,4.7283,4.7311,4.7327,4.7307,4.7396,4.7378,4.7343,4.7286,4.7384,4.742,4.7435,4.7234,4.7232,4.723,4.7229,0,0,4.7213,4.7226,4.7242,4.7253,4.7266,4.7296,4.7346,4.7375,4.7396,4.7413,4.7452,4.75,4.7468,4.7482,4.7463,4.75,4.7593,4.746,4.7459,4.7483,4.769,4.7715,4.7733,4.7572,4.7575,4.7577,4.7689,0,4.7324,4.741,4.7392,4.7476,4.7513,4.7472,4.7515,4.7527,4.7523,4.7553,4.7547,4.7581,4.7537,4.7545,4.7579,4.7574,4.7633,4.7566,4.7607,4.7609,4.7604,4.7752,4.7779,4.7884,4.7703,4.7705,4.7707,0,4.7464,4.7488,4.7577,4.7585,4.7599,4.7638,4.7664,4.7694,4.7706,4.7701,4.7717,4.7692,4.774,4.7684,4.7749,4.7704,4.772,4.772,4.7723,4.7725,4.7662,4.7756,4.7917,4.7932,4.7729,4.7727,4.7726,0,4.7568,4.7623,4.7683,4.7693,4.7704,4.7732,4.7738,4.7748,4.7767,4.7789,4.78,4.7828,4.7842,4.7863,4.7845,4.7807,4.7913,4.7856,4.7908,4.7909,4.793,4.7929,4.8095,4.7944,4.7944,4.7943,4.7943,0,4.7692,4.7747,4.773,4.7766,4.7827,4.7805,4.7866,4.7866,4.7876,4.7911,4.7878,4.7911,4.7887,4.7918,4.7905,4.796,4.7967,4.7963,4.7958,4.7965,4.7965,4.7973,4.7965,4.7948,4.7947,4.7946,4.7945,0,4.7817,4.7808,4.7871,4.7877,4.788,4.7924,4.7929,4.7962,4.7956,4.8002,4.8011,4.8001,4.8036,4.8022,4.8058,4.8049,4.812,4.8107,4.8116,4.8112,4.8165,4.816,4.834,4.8362,4.8199,4.82,4.8202,0,4.7896,4.7938,4.795,4.7972,4.7981,4.8017,4.8037,4.8017,4.8039,4.8058,4.8089,4.8122,4.8147,4.8205,4.82,4.8228,4.8214,4.8275,4.8218,4.8223,4.8213,4.8211,4.8214,4.8286,4.8288,4.829,4.8291,0,4.8038,4.8032,4.8062,4.8092,4.8117,4.8139,4.8157,4.8177,4.8159,4.8185,4.8221,4.8241,4.828,4.8312,4.8337,4.8341,4.8313,4.831,4.8323,4.8329,4.8333,4.8331,4.8146,4.8305,4.8304,4.8303,4.8302,4.8301,4.8141,4.8177,4.8191,4.8226,4.8239,4.8258,4.829,4.8289,4.832,4.8351,4.8337,4.838,4.8392,4.8423,4.8431,4.8463,4.8439,4.8458,4.8463,4.8468,4.8474,4.833,4.8468,4.8467,4.8467,4.8467,4.8466,0,4.828,4.8288,4.8321,4.8349,4.8377,4.8351,4.837,4.8394,4.8433,4.8447,4.8473,4.8515,4.8547,4.8546,4.8575,4.8601,4.8589,4.8609,4.8606,4.8608,4.8495,4.848,4.8619,4.8619,4.8619,4.8619,4.8619,4.8619,4.8355,4.8414,4.841,4.8474,4.8481,4.8524,4.8537,4.8554,4.8565,4.8615,4.8642,4.8641,4.8649,4.8679,4.8707,4.8706,4.8717,4.8743,4.8736,4.8631,4.8616,4.8601,4.8587,4.8746,4.8746,4.8846,4.8847,4.8848]}]]